Zurück zum Katalog

QIANFAN-68

AktivKommunikationPO
NORAD 62798·PAYLOAD·🇨🇳 China

Gestartet Jan 23, 2025 von Taiyuan Satellite Launch Center

Loading…

Nächste Überflüge (nächste 24 Stunden)

TLE

AktuellSource: Space-Track

Epoche: Sep 14, 2026, 22:27 UTC

1 62798U 25016P   26257.93593987  .00000040  00000-0  43429-4 0  9991
2 62798  88.9665  74.4162 0013205 265.2862  94.6781 13.51021694 84539

Verfolge QIANFAN-68 in Echtzeit mit AllMySat

Download on the App Store